Terug naar catalogus

STARLINK-4519

ActiefCommunicatieVLEO
NORAD 53439·PAYLOAD·🇺🇸 United States

Gelanceerd Aug 10, 2022 vanaf Cape Canaveral Space Force Station

Loading…

Volgende Passages (komende 24 uur)

TLE

VersSource: CelesTrak SupGP

Epoch: Sep 15, 2026, 02:12 UTC

1 53439C 22097BD  26258.09215278  .00041191  00000+0  12170-2 0  2587
2 53439  53.1590 318.6990 0001275  79.4340 301.8858 15.34370088    10

Volg STARLINK-4519 in realtime met AllMySat

Download on the App Store